Regional Weather Roundup
Issued by NWS Albany, NY

Home | Current Version | Previous Version | Graphics & Text | Print | Product List | Glossary Off
Versions: 1 2 3 4 5 6 7 8 9 10 11 12 13 14 15 16 17 18 19 20 21 22 23 24 25 26 27 28 29 30 31 32 33 34 35 36 37 38 39 40 41 42 43 44 45 46 47 48 49 50

000
ASUS41 KALY 210410
RWRALY

NEW YORK STATE HOURLY WEATHER ROUNDUP
NATIONAL WEATHER SERVICE ALBANY NY
1100 PM EST SAT DEC 20 2014

NOTE: "FAIR" INDICATES FEW OR NO CLOUDS BELOW 12,000 FEET WITH NO
SIGNIFICANT WEATHER AND/OR NO OBSTRUCTIONS TO VISIBILITY.

NYZ032-033-038>043-046>054-057>066-NYZ062>081-210500-
EAST


CITY           SKY/WX    TMP DP  RH WIND       PRES   REMARKS
ALBANY         CLOUDY    28  20  71 N5        30.32S WCI  23
GLENS FALLS    CLOUDY    21  17  84 E5        30.31F WCI  15
POUGHKEEPSIE   CLOUDY    30  21  69 CALM      30.29F
MONTGOMERY     CLOUDY    28  23  81 NE5       30.26F WCI  23
WHITE PLAINS   CLOUDY    30  22  72 N3        30.26F
ISLIP          CLOUDY    33  24  69 CALM      30.26F
NEW YORK CITY  CLOUDY    32  22  66 NE3       30.30S
CENTRAL PARK   CLOUDY    32  21  64 CALM      30.31S
$$

NYZ005>009-017-018-044>046-055-056-210500-
CENTRAL


CITY           SKY/WX    TMP DP  RH WIND       PRES   REMARKS
FULTON         CLOUDY    25  18  74 SE3       30.29S
SYRACUSE       CLOUDY    24  22  91 E3        30.29F
ROME           CLOUDY    25  20  81 E5        30.31F WCI  19
ELMIRA         CLOUDY    29  19  66 CALM      30.26S
BINGHAMTON     CLOUDY    25  19  78 NE6       30.21R WCI  18
MONTICELLO     CLOUDY    25  21  86 CALM      30.21F
$$

NYZ026>034-041>043-210500-
NORTH


CITY           SKY/WX    TMP DP  RH WIND       PRES   REMARKS
WATERTOWN      CLEAR     18  12  77 E3        30.30S
FORT DRUM      NOT AVBL
MASSENA        MOCLDY    14  11  87 NE8       30.35F FOG     WCI   3
SARANAC LAKE     N/A      6  32 100 CALM      30.21R
PLATTSBURGH    CLOUDY    15  12  88 N5        30.34S WCI   8
$$

NYZ001>004-010>016-019>021-210500-
WEST


CITY           SKY/WX    TMP DP  RH WIND       PRES   REMARKS
NIAGARA FALLS  CLOUDY    26  23  88 CALM      30.26F
BUFFALO        MOCLDY    27  22  81 S3        30.27S
DUNKIRK        CLOUDY    29  23  78 S7        30.27F WCI  22
JAMESTOWN      CLOUDY    25  19  80 S5        30.21F WCI  19
WELLSVILLE     CLOUDY    24  19  81 NW6       30.20S WCI  17
ROCHESTER      CLOUDY    30  22  72 CALM      30.28F
PENN YAN       CLOUDY    28  20  71 W3        30.26S
$$

             KEY
       WCI = WIND CHILL INDEX
       VSB = VISIBILITY
       HX  = HEAT INDEX
$$



USA.gov is the U.S. government's official web portal to all federal, state and local government web resources and services.